Date,TemperatureHighF,TemperatureAvgF,TemperatureLowF,DewpointHighF,DewpointAvgF,DewpointLowF,HumidityHigh,HumidityAvg,HumidityLow,PressureMaxIn,PressureMinIn,WindSpeedMaxMPH,WindSpeedAvgMPH,GustSpeedMaxMPH,PrecipitationSumIn
2013-9-1,96.5,85.4,77.8,78.4,74.6,71.6,86,71,52,29.96,29.88,4,1,4,0.01
2013-9-2,96.5,85.7,79.0,78.7,74.9,73.1,85,71,52,29.99,29.90,5,0,5,0.00
2013-9-3,97.9,86.8,78.7,78.4,75.3,73.2,87,70,50,30.00,29.90,4,0,4,0.04
2013-9-4,98.1,85.1,78.5,79.1,75.1,71.3,84,73,47,30.05,29.93,6,0,6,0.09
2013-9-5,99.0,85.1,78.1,79.8,75.2,69.3,85,74,49,30.08,29.96,5,0,5,0.40
2013-9-6,96.5,82.7,77.0,81.8,75.6,71.5,89,80,57,30.03,29.90,5,0,5,0.55
2013-9-7,96.8,82.6,74.5,76.9,72.9,69.6,85,74,52,29.99,29.88,7,0,7,0.17
2013-9-8,96.8,83.8,75.4,76.6,73.1,70.7,86,72,49,29.94,29.83,3,0,3,0.00
2013-9-9,98.5,86.5,77.4,77.1,72.6,68.9,82,65,43,29.99,29.89,5,0,5,0.00
2013-9-10,97.0,86.0,78.7,76.5,72.2,67.0,81,65,43,30.04,29.95,5,0,5,0.00
2013-9-11,98.3,86.0,78.1,75.5,71.9,68.7,82,64,40,30.03,29.94,5,1,5,0.00
2013-9-12,95.6,82.9,77.9,77.4,73.6,70.6,83,74,50,29.99,29.84,4,0,4,0.35
2013-9-13,91.6,82.3,75.2,78.2,73.7,70.5,86,76,61,29.87,29.78,4,0,4,0.00
2013-9-14,93.6,83.7,76.7,78.3,74.5,71.8,86,75,57,29.94,29.80,2,0,3,0.00
2013-9-15,99.0,83.2,75.4,79.0,73.9,68.3,86,75,50,30.04,29.92,11,1,11,0.04
2013-9-16,98.1,82.1,76.0,77.3,73.6,71.2,87,77,48,30.06,29.92,8,0,8,0.27
2013-9-17,97.4,83.2,75.6,77.9,73.2,70.8,87,73,47,30.09,29.97,4,1,5,0.00
2013-9-18,94.7,83.2,77.8,77.6,73.6,70.1,85,74,54,30.06,29.98,5,1,5,0.00
2013-9-19,96.3,82.5,76.7,77.3,73.6,71.3,86,76,51,30.08,29.99,3,0,3,0.38
2013-9-20,94.9,83.3,75.2,75.2,72.3,68.5,87,71,49,30.05,29.92,4,0,4,0.00
2013-9-21,94.0,83.5,74.7,74.0,70.9,67.6,81,67,49,29.97,29.80,5,1,5,0.00
2013-9-22,92.2,83.9,79.9,79.3,75.6,73.6,85,76,62,29.88,29.78,5,1,7,0.17
2013-9-23,82.8,79.2,77.0,78.0,75.3,73.6,91,88,83,29.97,29.85,6,1,6,0.83
2013-9-24,81.0,78.0,75.2,76.4,74.8,72.8,93,90,85,29.98,29.86,4,1,4,1.56
2013-9-25,79.6,76.4,72.2,76.2,73.1,69.3,92,89,85,29.95,29.82,6,1,6,2.27
2013-9-26,90.9,82.6,77.6,80.2,75.8,71.1,91,81,66,29.91,29.81,5,0,5,0.00
2013-9-27,92.2,80.2,73.1,75.8,70.6,68.1,85,73,51,29.99,29.89,5,0,5,0.00
2013-9-28,92.3,81.0,74.2,76.7,71.4,69.0,85,73,54,30.02,29.94,5,0,5,0.00
2013-9-29,96.5,82.2,73.8,73.7,70.3,68.1,83,69,46,30.02,29.91,4,0,4,0.00
2013-9-30,96.1,82.3,74.9,74.3,71.1,68.6,84,70,46,30.02,29.93,5,0,5,0.00